STARLINK-1640 (46173 NORAD) Tracking and Keplerian Element Data

This shows tracking and keplerian element data for the satellite.

Feedback or suggestion? Click here.




ElementValue
Catalog46173
NameSTARLINK-1640
Epoch Orbit184
Epoch Day336.91667824
Epoch Year2020
RAAN312.7697
Inclination52.9991
Eccentricity0.0001746
Argument of Perigee63.3269
Mean Anonmoly67.3902
Mean Motion15.05600508
Decay Rate-0.00029891
L11 46173U 20057BJ 20336.91667824 -.00029891 00000-0 -20398-2 0 9997
L22 46173 52.9991 312.7697 0001746 63.3269 67.3902 15.05600508 1840

Live tracking and technical data element details for STARLINK-1640 (NORAD 46173). STARLINK-1640 can be tracked NOW for your location showing map with azimuth and elevation plus other details from your city location.

Track the satellite on the map from your city or location and see movement details for azimuth, elevation, latitude, longitude, range, height, and movement on the map or in text.







IsCatalogInMostPopularTable: catalog: 46173, numindb: 23
Update: records affected: 1



GetName: 46173 STARLINK-1640

Hit Count: updated at: Thu, 03 Dec 2020 06:29:47 GMT